Location: ????? ??????
(37.8317°N, 23.8750°E)
Time: 12:49:47
(UTC+00:00)

H-2A R/B - Pass Details

Date: 20 January 2021
Orbit: 734 x 836 km, 98.2° (Epoch: 03 March)

Event Time Altitude Azimuth Distance (km) Brightness Sun altitude
Rises 16:27:48 0° 139° (SE) 3,161 5.0 -10.6°
Reaches altitude 10° 16:30:16 10° 129° (SE) 2,251 4.1 -11.1°
Maximum altitude 16:34:34 31° 69° (ENE) 1,312 2.7 -11.9°
Drops below altitude 10° 16:38:58 10° 8° (N) 2,309 4.2 -12.7°
Sets 16:41:31 0° 359° (N) 3,256 5.1 -13.2°
